Flight Track Log - Related Links

Times and Time Zones

All times are in EDT time to prevent confusion due to time zone crossing. See the N789EX flight status page for this flight to view local times or setup timezone preferences in your user account.

Time Position Orientation Groundspeed Altitude Reporting Facility
EDT Latitude Longitude Course Direction KTS MPH feet Rate Location/Type
03:50PM 47.1906 -119.3661 299° West 213 245 4,100  Level Seattle Center
03:56PM 47.3924 -119.9100 299° West 284 327 18,500 2,435 Climbing FlightAware ADS-B
03:56PM 47.4130 -119.9660 299° West 289 333 19,400 1,524 Climbing FlightAware ADS-B
03:57PM 47.4323 -120.0190 298° West 295 339 20,100 1,400 Climbing FlightAware ADS-B
03:57PM 47.4522 -120.0730 299° West 297 342 20,800 1,444 Climbing FlightAware ADS-B
03:58PM 47.4689 -120.1185 298° West 299 344 21,400 1,355 Climbing FlightAware ADS-B
03:58PM 47.4722 -120.1280 298° West 299 344 21,500 1,000 Climbing FlightAware ADS-B
03:58PM 47.4885 -120.1724 298° West 301 346 21,900 1,000 Climbing FlightAware ADS-B
03:58PM 47.4921 -120.1820 298° West 301 346 22,000 171 Climbing FlightAware ADS-B
03:59PM 47.5117 -120.2356 298° West 295 339 22,000  Level FlightAware ADS-B
03:59PM 47.5174 -120.2510 298° West 295 339 22,000  Level FlightAware ADS-B
03:59PM 47.5313 -120.2894 298° West 295 339 22,000  Level FlightAware ADS-B
04:00PM 47.5367 -120.3040 298° West 295 339 22,000  Level FlightAware ADS-B
04:00PM 47.5564 -120.3590 298° West 295 339 22,000  Level FlightAware ADS-B
04:01PM 47.5767 -120.4150 298° West 298 343 22,000  Level FlightAware ADS-B
04:01PM 47.5944 -120.4635 298° West 301 346 22,000  Level FlightAware ADS-B (CYVR)
04:01PM 47.5985 -120.4750 298° West 298 343 22,000  Level FlightAware ADS-B
04:02PM 47.6188 -120.5320 298° West 326 375 22,000  Level FlightAware ADS-B
04:02PM 47.5944 -120.4635 298° West 362 417 22,000  Level FlightAware ADS-B
04:02PM 47.6421 -120.5960 298° West 373 429 22,000  Level FlightAware ADS-B
04:03PM 47.6684 -120.6700 298° West 420 483 22,000 -200 Level FlightAware ADS-B
04:03PM 47.6971 -120.7500 298° West 449 517 21,800 -1,000 Descending FlightAware ADS-B
04:04PM 47.7159 -120.8021 298° West 428 493 21,200 -1,800 Descending FlightAware ADS-B
04:04PM 47.7260 -120.8300 298° West 435 501 20,900 -2,286 Descending FlightAware ADS-B
04:04PM 47.7511 -120.9005 298° West 395 455 19,600 -2,516 Descending FlightAware ADS-B
04:04PM 47.7537 -120.9080 298° West 394 453 19,600 -1,500 Level FlightAware ADS-B
04:05PM 47.7784 -120.9770 298° West 372 428 18,800 -1,672 Descending FlightAware ADS-B
04:05PM 47.8022 -121.0450 298° West 365 420 17,900 -1,700 Descending FlightAware ADS-B
04:06PM 47.8253 -121.1110 297° West 356 410 17,100 -1,696 Descending FlightAware ADS-B
04:06PM 47.8359 -121.1409 298° West 354 407 16,600 -1,714 Descending FlightAware ADS-B
04:06PM 47.8408 -121.1550 297° West 352 405 16,500 -1,385 Descending FlightAware ADS-B
04:06PM 47.8466 -121.1740 292° West 347 399 16,300 -1,667 Descending FlightAware ADS-B
04:06PM 47.8517 -121.1970 286° West 342 394 16,000 -1,636 Descending FlightAware ADS-B
04:07PM 47.8558 -121.2230 280° West 337 388 15,700 -1,667 Descending FlightAware ADS-B
04:07PM 47.8571 -121.2372 277° West 334 384 15,500 -1,615 Descending FlightAware ADS-B
04:07PM 47.8598 -121.2820 276° West 330 380 15,000 -1,440 Descending FlightAware ADS-B
04:08PM 47.8642 -121.3490 275° West 324 373 14,300 -1,500 Descending FlightAware ADS-B
04:08PM 47.8644 -121.3512 276° West 325 374 14,200 -1,800 Descending FlightAware ADS-B
04:08PM 47.8686 -121.4160 276° West 322 371 13,400 -1,565 Descending FlightAware ADS-B
04:08PM 47.8709 -121.4515 275° West 319 367 13,000 -1,355 Descending FlightAware ADS-B
04:09PM 47.8727 -121.4830 275° West 316 364 12,700 -1,500 Descending FlightAware ADS-B
04:09PM 47.8763 -121.5380 275° West 311 358 12,000 -1,600 Descending FlightAware ADS-B
04:09PM 47.8768 -121.5480 275° West 311 358 11,900 -2,323 Descending FlightAware ADS-B
04:10PM 47.8805 -121.6090 275° West 317 365 10,800 -2,108 Descending FlightAware ADS-B
04:10PM 47.8808 -121.6142 275° West 314 361 10,600 -1,043 Descending FlightAware ADS-B
04:10PM 47.8835 -121.6580 274° West 305 351 10,400 -900 Descending FlightAware ADS-B
04:10PM 47.8837 -121.6690 270° West 299 344 10,300 -462 Descending FlightAware ADS-B
04:10PM 47.8823 -121.6840 259° West 291 335 10,300  Level FlightAware ADS-B
04:10PM 47.8805 -121.6910 249° West 284 327 10,300 -750 Level FlightAware ADS-B
04:10PM 47.8786 -121.6970 243° Southwest 282 325 10,200 -1,000 Descending FlightAware ADS-B
04:10PM 47.8774 -121.7004 236° Southwest 279 321 10,200  Level FlightAware ADS-B (CYVR)
04:10PM 47.8758 -121.7030 234° Southwest 278 320 10,200  Level FlightAware ADS-B
04:10PM 47.8723 -121.7090 225° Southwest 275 316 10,200 -667 Level FlightAware ADS-B
04:10PM 47.8683 -121.7140 217° Southwest 274 315 10,100 -667 Descending FlightAware ADS-B
04:11PM 47.8633 -121.7180 210° Southwest 272 313 10,100 -667 Level FlightAware ADS-B
04:11PM 47.8577 -121.7230 206° Southwest 271 312 10,000 -1,412 Descending FlightAware ADS-B
04:11PM 47.8472 -121.7300 204° Southwest 271 312 9,700 -1,600 Descending FlightAware ADS-B (CYVR)
04:11PM 47.8404 -121.7350 204° Southwest 270 311 9,600 -2,000 Descending FlightAware ADS-B
04:11PM 47.8290 -121.7422 204° Southwest 266 306 9,200 -1,500 Descending FlightAware ADS-B
04:11PM 47.8232 -121.7460 205° Southwest 265 305 9,200 -2,842 Level FlightAware ADS-B
04:11PM 47.8064 -121.7580 205° Southwest 263 303 8,300 -3,400 Descending FlightAware ADS-B
04:12PM 47.7898 -121.7690 206° Southwest 254 292 7,500 -3,750 Descending FlightAware ADS-B
04:12PM 47.7892 -121.7699 206° Southwest 251 289 7,300 -1,875 Descending FlightAware ADS-B
04:12PM 47.7739 -121.7810 206° Southwest 251 289 7,000 -889 Descending FlightAware ADS-B
04:12PM 47.7611 -121.7910 207° Southwest 255 293 6,900 -375 Descending FlightAware ADS-B
04:12PM 47.7569 -121.7940 209° Southwest 254 292 6,900  Level FlightAware ADS-B
04:12PM 47.7539 -121.7970 213° Southwest 255 293 6,900  Level FlightAware ADS-B
04:12PM 47.7509 -121.8000 219° Southwest 255 293 6,900  Level FlightAware ADS-B
04:12PM 47.7480 -121.8050 228° Southwest 255 293 6,900  Level FlightAware ADS-B
04:12PM 47.7459 -121.8090 234° Southwest 256 295 6,900  Level FlightAware ADS-B
04:12PM 47.7432 -121.8160 246° West 257 296 6,900  Level FlightAware ADS-B
04:13PM 47.7420 -121.8230 255° West 260 299 6,900  Level FlightAware ADS-B
04:13PM 47.7413 -121.8290 260° West 261 300 6,900  Level FlightAware ADS-B
04:13PM 47.7408 -121.8350 264° West 261 300 6,900  Level FlightAware ADS-B
04:13PM 47.7405 -121.8480 269° West 261 300 6,900 -1,500 Level FlightAware ADS-B
04:13PM 47.7405 -121.8647 270° West 257 296 6,500 -2,769 Descending FlightAware ADS-B
04:13PM 47.7405 -121.8710 270° West 258 297 6,300 -2,824 Descending FlightAware ADS-B
04:13PM 47.7405 -121.8940 270° West 258 297 5,700 -2,600 Descending FlightAware ADS-B
04:13PM 47.7406 -121.9230 270° West 254 292 5,000 -2,364 Descending FlightAware ADS-B
04:14PM 47.7406 -121.9500 270° West 249 287 4,400 -2,516 Descending FlightAware ADS-B
04:14PM 47.7407 -121.9770 270° West 247 284 3,700 -2,323 Descending FlightAware ADS-B
04:14PM 47.7408 -122.0040 270° West 253 291 3,200 -2,211 Descending FlightAware ADS-B
04:14PM 47.7407 -121.9722 270° West 253 291 3,000 -1,125 Descending FlightAware ADS-B
04:15PM 47.7407 -122.0310 270° West 248 285 2,900 -261 Descending FlightAware ADS-B
04:15PM 47.7407 -122.0483 270° West 242 278 2,900  Level FlightAware ADS-B
04:15PM 47.7406 -122.0570 269° West 242 278 2,900  Level FlightAware ADS-B
04:15PM 47.7404 -122.0805 269° West 241 277 2,900  Level FlightAware ADS-B
04:15PM 47.7404 -122.0830 269° West 241 277 2,900 -333 Level FlightAware ADS-B
04:15PM 47.7401 -122.1110 269° West 240 276 2,800 -632 Descending FlightAware ADS-B
04:15PM 47.7400 -122.1134 269° West 240 276 2,700 -1,500 Descending FlightAware ADS-B
04:16PM 47.7397 -122.1380 269° West 243 280 2,400 -1,500 Descending FlightAware ADS-B
04:16PM 47.7396 -122.1473 269° West 243 280 2,200 -1,125 Descending FlightAware ADS-B
04:16PM 47.7394 -122.1640 269° West 244 281 2,100 -300 Descending FlightAware ADS-B
04:16PM 47.7390 -122.1804 268° West 243 280 2,100  Level FlightAware ADS-B
04:16PM 47.7389 -122.1890 268° West 245 282 2,100  Level FlightAware ADS-B
04:16PM 47.7385 -122.2124 269° West 237 273 2,100  Level FlightAware ADS-B
04:16PM 47.7383 -122.2270 269° West 239 275 2,100  Level FlightAware ADS-B
04:17PM 47.7382 -122.2450 270° West 221 254 2,100  Level FlightAware ADS-B
04:17PM 47.7357 -122.2710 261° West 220 253 2,100  Level FlightAware ADS-B
04:17PM 47.7363 -122.2685 247° West 218 251 2,100  Level FlightAware ADS-B
04:17PM 47.7333 -122.2790 250° West 218 251 2,100  Level FlightAware ADS-B
04:17PM 47.7281 -122.2930 244° Southwest 217 250 2,100 -353 Level FlightAware ADS-B
04:17PM 47.7257 -122.2989 236° Southwest 217 250 2,000 -462 Descending FlightAware ADS-B
04:18PM 47.7119 -122.3214 220° Southwest 202 232 1,900 -353 Descending FlightAware ADS-B
04:18PM 47.7017 -122.3330 235° Southwest 217 250 1,800 -300 Descending FlightAware ADS-B
04:18PM 47.6974 -122.3375 214° Southwest 186 214 1,800  Level FlightAware ADS-B
04:18PM 47.6952 -122.3400 216° Southwest 191 220 1,800  Level FlightAware ADS-B
04:18PM 47.6911 -122.3430 212° Southwest 182 209 1,800 -353 Level FlightAware ADS-B
04:18PM 47.6830 -122.3496 205° Southwest 179 206 1,700 -632 Descending FlightAware ADS-B
04:18PM 47.6762 -122.3540 202° Southwest 178 205 1,600 -333 Descending FlightAware ADS-B
04:19PM 47.6688 -122.3580 198° South 176 203 1,600 -500 Level FlightAware ADS-B
04:19PM 47.6673 -122.3583 197° South 176 203 1,500 -316 Descending FlightAware ADS-B
04:19PM 47.6563 -122.3633 197° South 170 196 1,500  Level FlightAware ADS-B
04:19PM 47.6499 -122.3660 197° South 172 198 1,500 -500 Level FlightAware ADS-B
04:19PM 47.6453 -122.3680 198° South 171 197 1,400 -353 Descending FlightAware ADS-B
04:19PM 47.6377 -122.3719 198° South 177 204 1,400 -429 Level FlightAware ADS-B
04:19PM 47.6342 -122.3730 196° South 179 206 1,300 -545 Descending FlightAware ADS-B
04:20PM 47.6279 -122.3750 189° South 178 205 1,300  Level FlightAware ADS-B
04:20PM 47.6255 -122.3750 182° South 177 204 1,300 750 Level FlightAware ADS-B
04:20PM 47.6220 -122.3749 174° South 176 203 1,400  Climbing FlightAware ADS-B
04:20PM 47.6103 -122.3690 155° Southeast 166 191 1,300 -333 Descending FlightAware ADS-B
04:20PM 47.6079 -122.3670 152° Southeast 161 185 1,300 -1,000 Level FlightAware ADS-B
04:20PM 47.6067 -122.3661 151° Southeast 159 183 1,200 -545 Descending FlightAware ADS-B
04:21PM 47.5877 -122.3510 151° Southeast 157 181 1,000 -535 Descending FlightAware ADS-B
04:22PM 47.5500 -122.3200 151° Southeast 148 170 300 9,545 Descending Seattle Center
04:23PM 47.5133 -122.2892 150° Southeast 147 169 22,000 21,344 Climbing Seattle Center

Login

Don't have an account? Register now (free) for customized features, flight alerts, and more!